Location: Appeville
(49.3218°N, 1.3427°W)
Time: 07:40:36
(UTC+00:00)

STARLINK 1035 - Pass Details

Date: 08 December 2019
Orbit: 466 x 467 km, 53.0° (Epoch: 29 January)

Event Time Altitude Azimuth Distance (km) Brightness Sun altitude
Exits shadow 05:33:23 43° 183° (S) 605 3.8 -20.8°
Drops below altitude 10° 05:36:10 10° 138° (SE) 1,513 6.6 -20.3°
Sets 05:38:18 0° 132° (SE) 2,381 7.9 -20.0°
